This demonstration page uses our WeatherBlox Daily Observations layout. Learn more.

Hourly Observations for January 31, 2015

Temp ( °F °C ) Dew Point ( °F °C ) Humidity (%) Winds ( mph kmh ) Pressure ( in mb ) Visibility ( mi km ) Precip ( " mm )
12:15 am 00:15 Cloudy with Light Rain 34 0.9 32 0.1 94 94 S 7 11 30.27 1025 5 8.0467 0 0
12:35 am 00:35 Cloudy with Light Rain 34 0.9 32 0.1 94 94 S 6 9 30.21 1023 5 8.0467 0 0
12:55 am 00:55 Cloudy with Light Rain 33 0.7 32 0 95 95 S 7 11 30.21 1023 4 6.43736 0 0
1:15 am 01:15 Cloudy with Light Rain 33 0.6 32 0 96 96 S 7 11 30.21 1023 4 6.43736 0 0
1:35 am 01:35 Cloudy with Light Wintry Mix 33 0.5 32 0 96 96 SSE 8 13 30.21 1023 4 6.43736 0 0
1:55 am 01:55 Cloudy with Light Wintry Mix 33 0.5 32 0 96 96 S 9 15 30.21 1023 4 6.43736 0 0
2:15 am 02:15 Cloudy with Light Snow 33 0.5 32 0 96 96 S 7 11 30.21 1023 4 6.43736 0.01 0.254
2:35 am 02:35 Cloudy with Light Wintry Mix 33 0.5 32 0 96 96 S 8 13 30.21 1023 4 6.43736 0.01 0.254
2:55 am 02:55 Cloudy with Light Rain 33 0.4 32 0 97 97 S 9 15 30.21 1023 5 8.0467 0.01 0.254
3:15 am 03:15 Cloudy with Drizzle 33 0.5 32 0 96 96 S 10 17 30.18 1022 5 8.0467 0 0
3:35 am 03:35 Cloudy with Drizzle 33 0.5 32 0 96 96 S 10 17 30.18 1022 7 11.26538 0 0
3:55 am 03:55 Cloudy with Drizzle 33 0.5 32 0 96 96 S 12 19 30.18 1022 7 11.26538 0 0
4:15 am 04:15 Cloudy with Light Rain 33 0.5 32 0 96 96 S 12 19 30.15 1021 7 11.26538 0 0
4:35 am 04:35 Cloudy with Light Snow 33 0.3 32 0 98 98 S 10 17 30.18 1022 5 8.0467 0 0
4:55 am 04:55 Cloudy with Light Snow 32 0.2 32 -0.1 98 98 S 13 20 30.18 1022 4 6.43736 0 0
5:15 am 05:15 Cloudy with Light Snow 32 0.2 32 -0.1 98 98 SSE 12 19 30.18 1022 2.5 4.02335 0.01 0.254
5:35 am 05:35 Cloudy with Light Snow 32 0.2 32 -0.1 98 98 SSE 10 17 30.18 1022 2.5 4.02335 0.01 0.254
5:55 am 05:55 Cloudy with Light Snow 32 0.2 32 -0.2 97 97 SSE 10 17 30.12 1020 3 4.82802 0.02 0.508
6:15 am 06:15 Cloudy with Light Snow 32 0.1 32 -0.2 98 98 S 10 17 30.12 1020 3 4.82802 0 0
6:35 am 06:35 Cloudy with Light Snow 32 0.1 32 -0.2 98 98 S 10 17 30.12 1020 4 6.43736 0 0
6:55 am 06:55 Cloudy with Light Snow 32 0.1 31 -0.3 97 97 SSE 10 17 30.12 1020 4 6.43736 0 0
7:15 am 07:15 Cloudy with Light Snow 32 0.1 31 -0.5 96 96 SSE 10 17 30.12 1020 3 4.82802 0 0
7:35 am 07:35 Cloudy with Light Snow 32 0.1 31 -0.5 96 96 SSE 9 15 30.12 1020 5 8.0467 0.01 0.254
7:55 am 07:55 Cloudy with Light Snow 32 0 31 -0.5 96 96 SSE 8 13 30.09 1019 5 8.0467 0.01 0.254
8:15 am 08:15 Cloudy 32 0 31 -0.5 96 96 SSE 8 13 30.09 1019 7 11.26538 0 0
8:35 am 08:35 Cloudy with Mist and Fog 32 0 31 -0.5 96 96 SSE 8 13 30.09 1019 5 8.0467 0 0
8:55 am 08:55 Cloudy with Mist and Fog 32 0 31 -0.5 96 96 SSE 10 17 30.09 1019 3 4.82802 0 0
9:15 am 09:15 Cloudy with Mist and Fog 32 0.1 31 -0.5 96 96 SSE 10 17 30.09 1019 2 3.21868 0 0
9:35 am 09:35 Cloudy with Mist and Fog 32 0.1 31 -0.3 97 97 SSE 9 15 30.09 1019 1.5 2.41401 0 0
9:55 am 09:55 Cloudy with Mist and Fog 33 0.3 32 -0.1 97 97 SSE 9 15 30.09 1019 1.75 2.816345 0 0
10:15 am 10:15 Cloudy with Mist and Fog 32 0.1 32 -0.2 98 98 SSE 8 13 30.09 1019 1.5 2.41401 0 0
10:35 am 10:35 Cloudy with Mist and Fog 32 0.1 32 -0.2 98 98 SSE 9 15 30.09 1019 1.5 2.41401 0 0
10:55 am 10:55 Cloudy with Mist and Fog 32 0.1 32 -0.2 98 98 SSE 8 13 30.09 1019 1.5 2.41401 0 0
11:15 am 11:15 Cloudy with Mist and Fog 32 0.2 32 -0.1 98 98 SSE 9 15 30.09 1019 1.5 2.41401 0 0
11:35 am 11:35 Cloudy with Mist and Fog 32 0.2 32 -0.1 98 98 SSE 9 15 30.06 1018 1.5 2.41401 0 0
11:55 am 11:55 Cloudy with Mist and Fog 32 0.2 32 -0.1 98 98 SSE 10 17 30.06 1018 1.25 2.011675 0 0
12:15 pm 12:15 Cloudy with Mist and Fog 32 0.1 32 -0.2 98 98 SSE 10 17 30.03 1017 1.5 2.41401 0 0
12:35 pm 12:35 Cloudy with Mist and Fog 32 0.1 32 -0.2 98 98 SSE 12 19 30.03 1017 1 1.60934 0 0
12:55 pm 12:55 Cloudy with Light Rain 32 0.1 32 -0.2 98 98 SSE 9 15 30 1016 1 1.60934 0 0
1:15 pm 13:15 Cloudy with Light Rain 32 0.1 32 -0.2 98 98 SSE 9 15 30 1016 1.25 2.011675 0 0
1:35 pm 13:35 Cloudy with Light Rain 32 0.1 32 -0.1 99 99 SE 10 17 29.97 1015 1.25 2.011675 0 0
1:55 pm 13:55 Cloudy with Light Rain 32 0.1 32 -0.1 99 99 SSE 9 15 29.97 1015 1.5 2.41401 0 0
2:15 pm 14:15 Cloudy with Drizzle 32 0.2 32 0 99 99 SSE 7 11 29.97 1015 1.5 2.41401 0 0
2:35 pm 14:35 Cloudy with Mist and Fog 32 0.2 32 0 99 99 SSE 9 15 29.94 1014 1.25 2.011675 0 0
2:55 pm 14:55 Cloudy with Mist and Fog 32 0.2 32 0 99 99 SE 6 9 29.94 1014 1.25 2.011675 0 0
3:15 pm 15:15 Cloudy with Mist and Fog 33 0.3 32 0 98 98 SE 6 9 29.94 1014 1.25 2.011675 0 0
3:35 pm 15:35 Cloudy with Mist and Fog 32 0.2 32 0 99 99 SE 6 9 29.94 1014 1.25 2.011675 0 0
3:55 pm 15:55 Cloudy with Light Snow 32 0.2 32 0 99 99 ESE 3 6 29.94 1014 1.25 2.011675 0 0
4:15 pm 16:15 Cloudy with Light Snow 32 0.1 32 -0.1 99 99 ESE 3 6 29.94 1014 1.5 2.41401 0 0
4:35 pm 16:35 Cloudy with Light Snow 32 0.1 32 -0.1 99 99 ESE 5 7 29.91 1013 1.5 2.41401 0 0
4:55 pm 16:55 Cloudy with Light Snow 32 0.1 32 -0.1 99 99 E 3 6 29.91 1013 1.75 2.816345 0 0
5:15 pm 17:15 Cloudy with Light Snow 32 0.1 32 -0.2 98 98 E 5 7 29.91 1013 2 3.21868 0.01 0.254
5:35 pm 17:35 Cloudy with Light Snow 32 0.1 32 -0.1 99 99 Calm 29.91 1013 1.5 2.41401 0.01 0.254
6:15 pm 18:15 Cloudy with Light Wintry Mix 32 0.1 32 -0.2 98 98 NE 5 7 29.91 1013 2.5 4.02335 0.02 0.508
6:35 pm 18:35 Cloudy with Light Wintry Mix 32 0 32 -0.2 99 99 NE 6 9 29.91 1013 3 4.82802 0.03 0.762
6:55 pm 18:55 Cloudy with Light Snow 32 0 32 -0.2 99 99 NE 7 11 29.91 1013 2.5 4.02335 0.04 1.016
7:15 pm 19:15 Cloudy with Light Snow 32 0 31 -0.3 98 98 NE 7 11 29.91 1013 3 4.82802 0 0
7:35 pm 19:35 Cloudy with Light Snow 32 0 31 -0.4 97 97 NNE 7 11 29.91 1013 2.5 4.02335 0 0
7:55 pm 19:55 Cloudy with Light Snow 32 0 31 -0.5 96 96 NNE 7 11 29.91 1013 2 3.21868 0.01 0.254
8:15 pm 20:15 Cloudy with Light Snow 32 0 31 -0.5 96 96 NNE 7 11 29.91 1013 1.75 2.816345 0.01 0.254
8:35 pm 20:35 Cloudy with Light Snow 32 -0.1 31 -0.6 96 96 NNE 8 13 29.91 1013 1.5 2.41401 0.02 0.508
8:55 pm 20:55 Cloudy with Light Snow 32 -0.1 31 -0.6 96 96 N 9 15 29.91 1013 1.75 2.816345 0.03 0.762
9:15 pm 21:15 Cloudy with Light Snow 32 -0.2 31 -0.7 96 96 N 9 15 29.91 1013 1.75 2.816345 0.01 0.254
9:35 pm 21:35 Cloudy with Light Snow 31 -0.3 31 -0.8 96 96 N 10 17 29.91 1013 3 4.82802 0.01 0.254
9:55 pm 21:55 Cloudy with Light Snow 31 -0.4 30 -0.9 96 96 N 10 17 29.91 1013 2.5 4.02335 0.02 0.508
10:15 pm 22:15 Cloudy with Light Snow 31 -0.5 30 -1 96 96 N 13 20 29.91 1013 2.5 4.02335 0 0
10:35 pm 22:35 Windy with Snow Likely 29 -1.8 28 -2.5 95 95 N 20 31 29.91 1013 2 3.21868 0 0
10:55 pm 22:55 Windy with Snow Likely 28 -2.3 26 -3.1 94 94 N 20 31 29.91 1013 1.75 2.816345 0 0
11:15 pm 23:15 Windy with Snow Likely 27 -2.9 25 -3.8 94 94 N 21 33 29.94 1014 1.5 2.41401 0.01 0.254
11:35 pm 23:35 Cloudy with Light Snow 26 -3.5 24 -4.5 93 93 N 17 28 29.97 1015 2 3.21868 0.01 0.254
11:55 pm 23:55 Windy with Snow Likely 25 -4 23 -5.1 92 92 N 20 31 29.97 1015 1.75 2.816345 0.01 0.254

Powered by AerisWeather